Regional Weather Roundup
Issued by NWS

Home | Current Version | Previous Version | Text Only | Print | Product List | Glossary Off
Versions: 1 2 3 4 5 6 7 8 9 10 11 12 13 14 15 16 17 18 19 20 21 22 23 24 25 26 27 28 29 30 31 32 33 34 35 36 37 38 39 40 41 42 43 44 45 46 47 48 49 50

000
ASUS43 KMKX 190120
RWRWI

WISCONSIN REGIONAL WEATHER ROUNDUP
NATIONAL WEATHER SERVICE MILWAUKEE/SULLIVAN WI
700 PM CST SUN FEB 18 2018

NOTE: "FAIR" INDICATES FEW OR NO CLOUDS BELOW 12,000 FEET WITH NO
SIGNIFICANT WEATHER AND/OR OBSTRUCTIONS TO VISIBILITY.

WIZ001-002-006>008-014>016-023>028-190200-
NORTHWEST WISCONSIN

CITY           SKY/WX    TMP DP  RH WIND       PRES   REMARKS
SUPERIOR ARPT  LGT SNOW  26  25  95 NE12G17   29.77R WCI  16
ASHLAND        LGT SNOW  24  22  91 N10       29.74R VSB 3/4 WCI  14
HAYWARD        CLOUDY    38  25  59 S7        29.66R WCI  33
SIREN          CLOUDY    33  24  68 N9        29.68R WCI  25
CUMBERLAND     CLOUDY    36  27  69 S13G20    29.67R WCI  27
RICE LAKE      CLOUDY    39  27  62 S9        29.69R WCI  32
CHETEK         CLOUDY    36  27  69 SE3       29.69R
LADYSMITH      CLOUDY    38  24  57 S8        29.71R WCI  32
EAU CLAIRE     CLOUDY    37  25  61 S8        29.70R WCI  31
MENOMONIE      MOCLDY    39  27  61 S13       29.69R WCI  31
NEW RICHMOND   FAIR      37  28  67 S10       29.66R WCI  30
OSCEOLA        CLOUDY    38  30  72 S7        29.69R WCI  33
$$

WIZ003>005-009-010-017-018-190200-
NORTH CENTRAL WISCONSIN

CITY           SKY/WX    TMP DP  RH WIND       PRES   REMARKS
MANITOWISH WTR CLOUDY    33  23  67 S10G17    29.68S WCI  25
ARBOR VITAE    CLOUDY    37  26  66 S16G22    29.70S WCI  27
WOODRUFF       CLOUDY    37  26  66 S16G22    29.70S WCI  27
RHINELANDER    CLOUDY    34  22  61 S14       29.73R WCI  25
EAGLE RIVER    CLOUDY    32  21  63 S7        29.72R WCI  26
LAND O LAKES   CLOUDY    32  22  67 S12G17    29.72R WCI  23
PHILLIPS       CLOUDY    34  24  66 S12G23    29.69S WCI  25
TOMAHAWK       CLOUDY    32  22  67 S6        29.74R WCI  26
MEDFORD        MOCLDY    31  22  71 S12       29.73R WCI  22
MERRILL        FAIR      32  23  68 S9        29.77R WCI  25
$$

WIZ029-030-035-036-043>047-190200-
CENTRAL WISCONSIN

CITY           SKY/WX    TMP DP  RH WIND       PRES   REMARKS
WAUSAU         FAIR      32  23  69 S14       29.76S WCI  22
MOSINEE        CLEAR     30  25  80 S14       29.78S WCI  20
MARSHFIELD     FAIR      32  24  72 S14       29.75R WCI  22
STEVENS POINT  FAIR      31  23  71 S12       29.81S WCI  22
WAUPACA        CLOUDY    37  24  60 S12       29.84S WCI  29
WAUTOMA        CLOUDY    34  25  69 S10       29.84R WCI  26
WISC RAPIDS    FAIR      35  21  56 S10       29.80S WCI  27
CAMP DOUGLAS   CLOUDY    37  27  66 S15G24    29.78S WCI  28
$$

WIZ011>013-019>022-031-037>040-048>050-190200-
NORTHEAST WISCONSIN

CITY           SKY/WX    TMP DP  RH WIND       PRES   REMARKS
ANTIGO         FAIR      29  22  76 S13       29.78S WCI  18
SHAWANO        CLOUDY    35  24  65 S3        29.84R
OCONTO         CLOUDY    32  27  80 SW6       29.87R WCI  26
STURGEON BAY   CLOUDY    33  28  81 S22G30    29.84S WCI  21
GREEN BAY      CLOUDY    34  25  69 S10       29.86R WCI  26
MANITOWOC      CLOUDY    34  29  82 S24G37    29.86F WCI  21
APPLETON       MOCLDY    32  23  69 S15G23    29.82R WCI  22
CLINTONVILLE   CLOUDY    35  23  60 S10       29.84R WCI  28
OSHKOSH        CLOUDY    34  25  69 S18G25    29.82R WCI  23
$$

WIZ032>034-041-042-053>061-190200-
SOUTHWEST WISCONSIN

CITY           SKY/WX    TMP DP  RH WIND       PRES   REMARKS
LA CROSSE      FAIR      39  27  62 S10       29.76R WCI  32
SPARTA         FAIR      36  28  71 S9        29.78S WCI  29
VIROQUA        FAIR      36  31  82 S10G20    29.77R WCI  28
BOSCOBEL       CLOUDY    40  29  64 S9        29.82R WCI  34
PRAIRIE DU CHI CLOUDY    38  29  69 E6        29.80R WCI  34
PLATTEVILLE    MOCLDY    38  32  76 S20G25    29.81R WCI  29
$$

WIZ056-057-062-063-064-067-068-190200-
SOUTH CENTRAL WISCONSIN

CITY           SKY/WX    TMP DP  RH WIND       PRES   REMARKS
REEDSBURG      CLOUDY    35  28  74 S12       29.81S WCI  27
BARABOO/DELLS  CLOUDY    34  28  77 S13G18    29.82R WCI  25
LONE ROCK      CLOUDY    38  30  73 S6        29.83R WCI  33
MINERAL POINT  CLOUDY    36  34  93 SE15G22   29.80R WCI  26
MADISON        MOCLDY    35  29  78 S20       29.84R WCI  24
MIDDLETON      FAIR      37  31  81 S15G24    29.82S WCI  27
WATERTOWN      FAIR      36  27  71 S14G22    29.86S WCI  27
MONROE         FAIR      36  32  87 S25G31    29.81F WCI  23
JANESVILLE     MOCLDY    37  30  75 S12G23    29.86F WCI  30
$$

WIZ051-052-058>065-066-070>072-190200-
SOUTHEAST WISCONSIN

CITY           SKY/WX    TMP DP  RH WIND       PRES   REMARKS
MILWAUKEE      MOCLDY    35  29  78 S16G26    29.92F WCI  25
WAUKESHA       CLEAR     30  25  80 SE14      29.90F WCI  20
MILWAUKEE/TIMM CLEAR     32  25  74 S14       29.92F WCI  22
RACINE         FAIR      34  30  85 S18G33    29.95F WCI  23
BURLINGTON     FAIR      36  28  72 S16G23    29.90F WCI  26
KENOSHA        FAIR      34  28  79 S21G29    29.93F WCI  22
FOND DU LAC    CLOUDY    34  24  67 S21G31    29.83F WCI  22
SHEBOYGAN      MOCLDY    33  29  85 S28G39    29.88F WCI  20
WEST BEND      FAIR      32  28  86 SE7       29.89F WCI  26
JUNEAU         FAIR      33  24  68 SE10      29.87R WCI  25
$$

LSZ147-162-190200-
LAKE SUPERIOR

STATION/POSITION TIME  TEMP    WIND        PRES    WAVE
                       AIR SEA DIR/SP/G            HT/PER
                 (UTC) (F)     (DEG/KT/KT) (MB)    (FT/S)
DEVILS ISLAND    0100   26      60/ 20/ 22 1008.8R
SAXON HARBOR     0040   27      50/ 10/ 13 1006.8R
$$

LMZ867-665-643>646-190200-
LAKE MICHIGAN

STATION/POSITION TIME  TEMP    WIND        PRES    WAVE
                       AIR SEA DIR/SP/G            HT/PER
                 (UTC) (F)     (DEG/KT/KT) (MB)    (FT/S)
NORTHPORT PIER   0040   35                 1010.8F
KEWAUNEE LAKESHO 0054   34     170/ 26/ 32 1010.8F
SHEBOYGAN LAKESH 0100   35     170/ 35/ 39 1011.8F
PORT WASHINGTON  0030   34     170/ 20/ 27 1014.6F
MILWAUKEE LAKESH 0100   35     160/ 18/ 21   N/A
KENOSHA   LAKESH 0100   34     170/ 26/ 33 1013.5
$$

TC  - TEMPERATURE IN CELSIUS
VSB - VISIBILITY IN STATUTE MILES
WCI - WIND CHILL INDEX
HX  - HEAT INDEX





USA.gov is the U.S. government's official web portal to all federal, state and local government web resources and services.